Regional Weather Roundup
Issued by NWS Upton, NY

Current Version | Previous Version | Text Only | Print | Product List | Glossary On
Versions: 1 2 3 4 5 6 7 8 9 10 11 12 13 14 15 16 17 18 19 20 21 22 23 24 25 26 27
000
ASUS41 KOKX 170705
RWROKX

REGIONAL WEATHER ROUNDUP
NATIONAL WEATHER SERVICE NEW YORK NY
300 AM EDT THU APR 17 2014

NOTE: "FAIR" INDICATES FEW OR NO CLOUDS BELOW 12,000 FEET WITH NO
SIGNIFICANT WEATHER AND/OR OBSTRUCTIONS TO VISIBILITY.

NYZ071-072-176-178-NJZ106-104-170800-
NEW YORK CITY METRO AREA


CITY           SKY/WX    TMP DP  RH WIND       PRES   REMARKS
CENTRAL PARK   CLEAR     38  16  40 E12       30.63S WCI  30
LAGUARDIA APRT PTCLDY    38  19  46 NE10      30.62R WCI  31
KENNEDY INTL   CLEAR     37  19  48 NE10      30.62R WCI  30
NEWARK/LIBERTY CLEAR     36  20  52 N10       30.62R WCI  28
TETERBORO      CLEAR     38  19  46 NE3       30.62R
$$

NYZ177-179-078>081-170800-
LONG ISLAND NEW YORK

CITY           SKY/WX    TMP DP  RH WIND       PRES   REMARKS
FARMINGDALE    CLEAR     34  22  61 N7        30.62R WCI  28
ISLIP          CLEAR     35  23  61 NE7       30.60R WCI  29
SHIRLEY        CLEAR     34  20  56 N3        30.62S
WESTHAMPTON    CLEAR     34  21  59 NE6       30.63R WCI  29
MONTAUK POINT    N/A     38  19  46 NE12G18   30.63R WCI  30
$$

NYZ052-065-067-170800-
HUDSON VALLEY

CITY           SKY/WX    TMP DP  RH WIND       PRES   REMARKS
WHITE PLAINS   CLEAR     33  16  49 N3        30.60R
NEWBURGH       CLEAR     30  19  64 NE7       30.64R WCI  23
MONTGOMERY     CLEAR     28  20  71 N5        30.62R WCI  23
POUGHKEEPSIE   CLEAR     29  22  75 CALM      30.64R
ALBANY         PTCLDY    28  17  63 CALM      30.65R
$$

NJZ001-105-106-008-010-013-015-019>022-104-170800-
NEW JERSEY

CITY           SKY/WX    TMP DP  RH WIND       PRES   REMARKS
NEWARK/LIBERTY CLEAR     36  20  52 N10       30.62R WCI  28
TETERBORO      CLEAR     38  19  46 NE3       30.62R
CALDWELL       CLEAR     34  16  47 NE3       30.63R
MORRISTOWN     CLEAR     36  19  51 CALM      30.62R
SOMERVILLE     CLEAR     32  20  61 CALM      30.60R
LINDEN         FAIR      39  19  43 NE7       30.63S WCI  34
SUSSEX           N/A     29  20  69 CALM      30.61R
ANDOVER          N/A     30  22  72 VRB3      30.60S
TRENTON        CLEAR     36  17  46 NE9G20    30.58S WCI  29
MILLVILLE      CLEAR     31  27  85 N3        30.55F
ATLANTIC CITY  CLEAR     29  25  85 NE3       30.56F
WRIGHTSTOWN    CLEAR     31  23  71 NE6       30.56S WCI  25
TOMS RIVER     CLEAR     28  25  86 CALM      30.59S
BELMAR         CLEAR     37  19  48 NE8       30.59R WCI  31
$$

PAZ047>061-062-071-170800-
EASTERN PENNSYLVANIA

CITY           SKY/WX    TMP DP  RH WIND       PRES   REMARKS
PHILADELPHIA   PTCLDY    38  21  50 NE7       30.59S WCI  33
ALLENTOWN      CLEAR     30  17  58 NE6       30.60R WCI  24
SCRANTON       CLEAR     29  18  63 E3        30.57S
$$

CTZ002-004>006-009-010-012-RIZ004-006-007-MAZ004-011-015-170800-
SOUTHERN NEW ENGLAND
 IN CT

CITY           SKY/WX    TMP DP  RH WIND       PRES   REMARKS
BRADLEY INTL   CLEAR     28  20  71 N6        30.65R WCI  22
HARTFORD       CLEAR     32  19  58 N7        30.65R WCI  26
DANBURY        CLEAR     27  22  81 CALM      30.63R
WTRBRY/OXFORD  CLEAR     30  16  55 NE8       30.63R WCI  23
BRIDGEPORT     CLEAR     35  21  56 NE8       30.64R WCI  29
MERIDEN        CLEAR     32  19  58 N5        30.65R WCI  27
NEW HAVEN      CLEAR     31  19  61 CALM      30.64R
CHESTER        FAIR      32  18  55 NE7       30.63R WCI  26
GROTON         CLEAR     33  15  47 NE10      30.64R WCI  25
WILLIMANTIC    CLEAR     29  21  72 CALM      30.65R

 IN RI

CITY           SKY/WX    TMP DP  RH WIND       PRES   REMARKS
PROVIDENCE     CLEAR     32  15  49 N10       30.65R WCI  24
BLOCK ISLAND   CLEAR     36  18  48 NE13G23   30.61R WCI  27
WESTERLY       CLEAR     33  17  51 N5        30.64R WCI  29

 IN MA

CITY           SKY/WX    TMP DP  RH WIND       PRES   REMARKS
BOSTON         CLEAR     32  19  58 N9        30.67R WCI  24
WORCESTER      CLEAR     26  14  60 NE8       30.61R WCI  18
WESTFIELD      CLEAR     30  19  63 NE5       30.65R WCI  25
PROVINCETOWN   CLEAR     36  21  55 MISG      30.66R
NANTUCKET      CLEAR     36  19  50 NE14      30.60R WCI  27
$$

ANZ330-335-338-340-345-350-353-355-170800-
COASTAL MARINE OBSERVATIONS


STATION/POSITION TIME  SKY/WX   TEMP    WIND        PRES    VSBY  WAVE
                                AIR SEA DIR/SP/G                  HT/PER
                 (UTC)          (F)     (DEG/KT/KT) (MB)    (MI)  (FT/S)
NY HARB ENTRANCE 0700            40 42   40/ 17/ 19 1035.9
4S FIRE IS       0600               43                N/A           3/11
23SW MTP         0700            39 42   50/ 19/ 21 1035.9          5/10
HUDSON CANYON    0600            41 44   50/ 16/ 19 1034.4          5/10
EXECUTION ROCKS  0700            39 42   30/ 14/ 17   N/A
WESTERN LI SOUND 0700            38      40/ 12/ 14   N/A           1/ 3
CENTRAL LI SOUND 0600            38 42   70/ 14/ 16   N/A           1/ 3
EASTERN LI SOUND NOT AVBL
ROBBINS REEF     0700            39      50/ 19/ 20   N/A
$$


>>>>>>>>>>>>>>>>>>>>>>>>>>>> KEY <<<<<<<<<<<<<<<<<<<<<<<<<<<
>                                                          <
>     SKY/WX - SKY CONDITION/PRESENT WEATHER               <
>     TMP    - TEMPERATURE IN FAHRENHEIT                   <
>     DP     - DEWPOINT IN FAHRENHEIT                      <
>     RH     - RELATIVE HUMIDITY IN PERCENT                <
>     WIND   - DIRECTION AND SPEED IN MPH                  <
>     PRES   - MEAN SEA LEVEL PRESSURE IN INCHES OF HG     <
>     WCI    - WIND CHILL INDEX                            <
>     VSB    - VISIBILITY IN MILES                         <
>     HX     - HEAT INDEX                                  <
>     TC     - TEMPERATURE IN CELSIUS                      <
>     VRB    - VARIABLE WIND DIRECTION                     <
>                                                          <
>>>>>>>>>>>>>>>>>>>>>>>>>>>> KEY <<<<<<<<<<<<<<<<<<<<<<<<<<<





USA.gov is the U.S. government's official web portal to all federal, state and local government web resources and services.